Location: Baix
(44.7118°N, 4.7648°E)
Time: 15:29:15
(UTC+00:00)

Explorer 11/Cluster Stage 4 - Pass Details

Date: 04 December 2020
Orbit: 467 x 1258 km, 28.8° (Epoch: 14 January)

Event Time Altitude Azimuth Distance (km) Brightness Sun altitude
Rises 20:13:55 0° 241° (WSW) 4,156 10.8 -44.1°
Reaches altitude 10° 20:17:39 10° 227° (SW) 3,124 9.9 -44.7°
Enters shadow 20:18:49 13° 221° (SW) 2,843 9.6 -44.9°
Maximum altitude 20:23:17 22° 181° (S) 2,205 - -45.7°
Drops below altitude 10° 20:28:22 10° 134° (SE) 2,776 - -46.6°
Sets 20:31:27 0° 119° (ESE) 3,584 - -47.1°
